Weather History for Red Wing, MN

Change the Weather History Date:

Monday, February 11, 2013

  Actual Average Record
Temperature  
Mean Temperature 27 °F -  
Max Temperature 33 °F 28 °F 51 °F (1999)
Min Temperature 21 °F 11 °F -23 °F (2014)
Degree Days  
Heating Degree Days 38    
Moisture  
Dew Point 23 °F    
Average Humidity 84    
Maximum Humidity 100    
Minimum Humidity 74    
Precipitation  
Precipitation 0.05 in - - ()
Sea Level Pressure  
Sea Level Pressure 29.72 in    
Wind  
Wind Speed 11 mph (WNW)    
Max Wind Speed 16 mph    
Max Gust Speed 23 mph    
Visibility 8 miles    
Events Snow    
Averages and records for this station are not official NWS values.
T = Trace of Precipitation, MM = Missing Value Source: NWS Daily Summary

Daily Weather History Graph

Daily Weather History Graph

Search for Another Location

Airport:

Trip Planner

Search our weather history database for the weather conditions in past years. The results will help you decide how hot, cold, wet, or windy it might be!

Date:

Astronomy

Feb. 11, 2013 Rise Set
Actual Time 7:15 AM CST 5:33 PM CST
Civil Twilight 6:45 AM CST 6:03 PM CST
Nautical Twilight 6:11 AM CST 6:38 PM CST
Astronomical Twilight 5:37 AM CST 7:11 PM CST
Moon 7:34 AM CST (2/11) 7:38 PM CST (2/11)
Length of Visible Light 11h 18m
Length of Day
10h 17m
Waxing Crescent, 3% of the Moon is Illuminated
Feb 11
Waxing Crescent
Feb 17
First Quarter
Feb 25
Full
Mar 4
Last Quarter
Mar 11
New

Hourly Weather History & Observations

Time (CST) Temp. Windchill Dew Point Humidity Pressure Visibility Wind Dir Wind Speed Gust Speed Precip Events Conditions
12:15 AM 32.0 °F 26.4 °F 30.2 °F 93% 29.27 in 1.5 mi WNW 5.8 mph - 0.02 in Snow Light Snow
12:35 AM 32.0 °F 24.2 °F 30.2 °F 93% 29.28 in 1.2 mi WNW 9.2 mph - 0.03 in Snow Light Snow
12:55 AM 33.8 °F 25.8 °F 32.0 °F 93% 29.28 in 1.2 mi WNW 10.4 mph - 0.04 in Snow Light Snow
1:15 AM 32.0 °F 23.6 °F 30.2 °F 93% 29.30 in 1.2 mi WNW 10.4 mph - 0.01 in Snow Light Snow
1:35 AM 32.0 °F 23.6 °F 30.2 °F 93% 29.31 in 2.5 mi WNW 10.4 mph - 0.01 in Snow Light Snow
1:55 AM 32.0 °F 24.2 °F 30.2 °F 93% 29.32 in 3.0 mi WNW 9.2 mph - 0.01 in Snow Light Snow
2:15 AM 32.0 °F 24.2 °F 30.2 °F 93% 29.34 in 5.0 mi NW 9.2 mph - N/A Snow Light Snow
2:35 AM 32.0 °F 23.0 °F 30.2 °F 93% 29.36 in 5.0 mi WNW 11.5 mph 16.1 mph N/A Snow Light Snow
2:55 AM 32.0 °F 23.0 °F 30.2 °F 93% 29.37 in 3.0 mi WNW 11.5 mph 17.3 mph N/A Snow Light Snow
3:15 AM 32.0 °F 24.8 °F 30.2 °F 93% 29.38 in 1.5 mi WNW 8.1 mph 17.3 mph N/A Snow Light Snow
3:35 AM 30.2 °F 21.3 °F 30.2 °F 100% 29.39 in 1.5 mi WNW 10.4 mph - N/A Snow Light Snow
3:55 AM 30.2 °F 19.3 °F 30.2 °F 100% 29.40 in 2.5 mi WNW 15.0 mph 18.4 mph N/A Snow Light Snow
4:15 AM 30.2 °F 21.3 °F 28.4 °F 93% 29.42 in 3.0 mi WNW 10.4 mph 18.4 mph N/A Snow Light Snow
4:35 AM 30.2 °F 19.8 °F 28.4 °F 93% 29.44 in 5.0 mi WNW 13.8 mph 20.7 mph N/A Snow Light Snow
4:55 AM 30.2 °F 21.3 °F 28.4 °F 93% 29.46 in 5.0 mi WNW 10.4 mph 17.3 mph N/A Snow Light Snow
5:15 AM 30.2 °F 20.2 °F 28.4 °F 93% 29.48 in 10.0 mi WNW 12.7 mph - N/A   Overcast
5:55 AM 30.2 °F 20.2 °F 26.6 °F 86% 29.51 in 10.0 mi WNW 12.7 mph 20.7 mph N/A   Overcast
6:15 AM 30.2 °F 20.2 °F 26.6 °F 86% 29.53 in 10.0 mi NW 12.7 mph 18.4 mph N/A   Overcast
6:35 AM 30.2 °F 21.3 °F 26.6 °F 86% 29.54 in 10.0 mi WNW 10.4 mph 18.4 mph N/A Snow Light Snow
6:55 AM 28.4 °F 19.1 °F 26.6 °F 93% 29.56 in 10.0 mi NW 10.4 mph - N/A Snow Light Snow
7:15 AM 28.4 °F 19.1 °F 24.8 °F 86% 29.58 in 10.0 mi WNW 10.4 mph 18.4 mph N/A Snow Light Snow
7:35 AM 28.4 °F 18.0 °F 24.8 °F 86% 29.60 in 10.0 mi WNW 12.7 mph 16.1 mph N/A Snow Light Snow
7:55 AM 28.4 °F 19.7 °F 24.8 °F 86% 29.62 in 7.0 mi WNW 9.2 mph - N/A Snow Light Snow
8:15 AM 28.4 °F 19.1 °F 24.8 °F 86% 29.63 in 7.0 mi WNW 10.4 mph - N/A Snow Light Snow
8:35 AM 26.6 °F 16.2 °F 24.8 °F 93% 29.64 in 5.0 mi WNW 11.5 mph - N/A Snow Light Snow
8:55 AM 26.6 °F 15.7 °F 24.8 °F 93% 29.65 in 2.0 mi WNW 12.7 mph 18.4 mph N/A Snow Light Snow
9:15 AM 26.6 °F 15.7 °F 24.8 °F 93% 29.67 in 1.2 mi WNW 12.7 mph - N/A Snow Light Snow
9:35 AM 26.6 °F 17.5 °F 24.8 °F 93% 29.69 in 1.8 mi WNW 9.2 mph - N/A Snow Light Snow
9:55 AM 26.6 °F 15.7 °F 24.8 °F 93% 29.70 in 7.0 mi WNW 12.7 mph 18.4 mph N/A   Overcast
10:15 AM 26.6 °F 15.7 °F 21.2 °F 80% 29.72 in 5.0 mi WNW 12.7 mph 18.4 mph N/A   Haze
10:35 AM 26.6 °F 16.2 °F 21.2 °F 80% 29.73 in 5.0 mi WNW 11.5 mph 18.4 mph N/A   Haze
10:55 AM 26.6 °F 15.2 °F 21.2 °F 80% 29.74 in 10.0 mi WNW 13.8 mph 18.4 mph N/A   Overcast
11:15 AM 26.6 °F 17.5 °F 21.2 °F 80% 29.75 in 10.0 mi WNW 9.2 mph - N/A   Overcast
11:35 AM 26.6 °F 17.5 °F 21.2 °F 80% 29.76 in 10.0 mi WNW 9.2 mph - N/A   Overcast
11:55 AM 26.6 °F 16.2 °F 21.2 °F 80% 29.77 in 10.0 mi WNW 11.5 mph - N/A   Overcast
12:15 PM 26.6 °F 16.8 °F 21.2 °F 80% 29.78 in 10.0 mi WNW 10.4 mph 18.4 mph N/A   Overcast
12:35 PM 28.4 °F 19.7 °F 21.2 °F 74% 29.78 in 10.0 mi WNW 9.2 mph - N/A   Overcast
12:55 PM 28.4 °F 19.1 °F 21.2 °F 74% 29.80 in 7.0 mi WNW 10.4 mph - N/A   Overcast
1:15 PM 28.4 °F 17.5 °F 21.2 °F 74% 29.80 in 10.0 mi WNW 13.8 mph 17.3 mph N/A   Overcast
1:35 PM 28.4 °F 17.0 °F 21.2 °F 74% 29.81 in 10.0 mi WNW 15.0 mph - N/A   Overcast
1:55 PM 28.4 °F 18.5 °F 21.2 °F 74% 29.82 in 10.0 mi WNW 11.5 mph 18.4 mph N/A   Overcast
2:15 PM 28.4 °F 19.1 °F 21.2 °F 74% 29.83 in 10.0 mi WNW 10.4 mph 17.3 mph N/A   Overcast
2:35 PM 26.6 °F 15.2 °F 21.2 °F 80% 29.84 in 10.0 mi WNW 13.8 mph - N/A   Overcast
2:55 PM 26.6 °F 15.7 °F 21.2 °F 80% 29.85 in 10.0 mi WNW 12.7 mph 17.3 mph N/A   Overcast
3:15 PM 26.6 °F 15.2 °F 19.4 °F 74% 29.86 in 10.0 mi WNW 13.8 mph - N/A   Overcast
3:35 PM 26.6 °F 16.2 °F 21.2 °F 80% 29.87 in 10.0 mi WNW 11.5 mph 18.4 mph N/A   Overcast
3:55 PM 26.6 °F 15.2 °F 19.4 °F 74% 29.88 in 10.0 mi WNW 13.8 mph 18.4 mph N/A   Overcast
4:55 PM 26.6 °F 15.2 °F 19.4 °F 74% 29.91 in 10.0 mi WNW 13.8 mph 21.9 mph N/A   Overcast
5:15 PM 24.8 °F 11.9 °F 19.4 °F 80% 29.92 in 10.0 mi West 16.1 mph 23.0 mph N/A   Overcast
5:35 PM 24.8 °F 11.9 °F 19.4 °F 80% 29.93 in 10.0 mi WNW 16.1 mph 21.9 mph N/A   Overcast
5:55 PM 24.8 °F 12.9 °F 17.6 °F 74% 29.94 in 10.0 mi WNW 13.8 mph 20.7 mph N/A   Overcast
6:15 PM 24.8 °F 14.0 °F 17.6 °F 74% 29.95 in 10.0 mi WNW 11.5 mph 20.7 mph N/A   Overcast
6:35 PM 24.8 °F 14.0 °F 17.6 °F 74% 29.96 in 10.0 mi WNW 11.5 mph 19.6 mph N/A   Overcast
6:55 PM 24.8 °F 14.0 °F 17.6 °F 74% 29.96 in 10.0 mi WNW 11.5 mph - N/A   Overcast
7:15 PM 23.0 °F 11.1 °F 17.6 °F 80% 29.96 in 10.0 mi WNW 12.7 mph 17.3 mph N/A   Overcast
7:35 PM 23.0 °F 11.7 °F 17.6 °F 80% 29.97 in 10.0 mi WNW 11.5 mph - N/A   Overcast
7:55 PM 21.2 °F 9.5 °F 15.8 °F 80% 29.98 in 10.0 mi West 11.5 mph - N/A   Overcast
8:15 PM 21.2 °F 8.3 °F 15.8 °F 80% 29.98 in 10.0 mi West 13.8 mph - N/A   Overcast
8:35 PM 21.2 °F 8.9 °F 15.8 °F 80% 29.98 in 10.0 mi West 12.7 mph - N/A   Overcast
8:55 PM 21.2 °F 10.9 °F 15.8 °F 80% 29.99 in 10.0 mi West 9.2 mph - N/A   Overcast
9:15 PM 21.2 °F 11.7 °F 15.8 °F 80% 30.00 in 10.0 mi West 8.1 mph - N/A   Overcast
9:35 PM 21.2 °F 10.9 °F 15.8 °F 80% 30.00 in 10.0 mi West 9.2 mph - N/A   Overcast
9:55 PM 21.2 °F 10.1 °F 15.8 °F 80% 30.01 in 10.0 mi West 10.4 mph - N/A   Overcast
10:15 PM 21.2 °F 9.5 °F 15.8 °F 80% 30.01 in 10.0 mi WNW 11.5 mph 16.1 mph N/A Snow Light Snow
10:35 PM 21.2 °F 11.7 °F 15.8 °F 80% 30.02 in 10.0 mi NW 8.1 mph - N/A Snow Light Snow
10:55 PM 21.2 °F 12.6 °F 15.8 °F 80% 30.02 in 10.0 mi WNW 6.9 mph - N/A Snow Light Snow
11:15 PM 21.2 °F 11.7 °F 15.8 °F 80% 30.02 in 10.0 mi WNW 8.1 mph - N/A Snow Light Snow
11:35 PM 21.2 °F 13.6 °F 15.8 °F 80% 30.02 in 10.0 mi WNW 5.8 mph - N/A Snow Light Snow
11:55 PM 21.2 °F 10.9 °F 15.8 °F 80% 30.02 in 10.0 mi WNW 9.2 mph - N/A Snow Light Snow